User: anonymous   Login
Location: South Tamworth Observatory
(43.8246°N, 71.3026°W)
Time: 12:26:34
(UTC-04:00)
Language:

Cosmos 1844 - Orbit

View from above orbital plane
View from above orbital plane
View from above satellite
View from above satellite

Ground track
Ground track

The orbit data is extracted from the following two-line orbital elements,

1 17973U 87041A   15142.77524760  .00000114  00000-0  85071-4 0  9999
2 17973 070.8986 067.6854 0031473 184.1386 205.0231 14.13987173446227
Epoch (UTC): 22 May 2015 18:36:21
Eccentricity: 0.0031473
inclination: 70.8986°
perigee height: 823 km
apogee height: 868 km
right ascension of ascending node: 67.6854°
argument of perigee: 184.1386°
revolutions per day: 14.13987173
mean anomaly at epoch: 205.0231°
orbit number at epoch: 44622

The dashed part of the orbit path shows where the satellite is in the earth's shadow,  

DLR